ROMMA est une association bénévole à but non lucratif. Votre soutien est indispensable : ADHERER à ROMMA ou FAIRE un DON

Val-d'Isère - (73, Savoie)

Haute-Maurienne (1850 m)   Longitude: 6° 58' 52'' E   Latitude: 45° 26' 53'' N Station partenaire n°93
 

Détail journalier du     <<     >>

Température Precipitation Humidité Vent Dir Rafale Dir. rafale Ensol.
Heure (°C) (mm) (%) (km/h) (km/h) (min)
01:00 2.605111E18E0
02:00 2.20516E15ESE0
03:00 2.10498E15E0
04:00 2.00496ENE13E0
05:00 1.70518E15E0
06:00 2.20498E13E0
07:00 2.604811E16E0
08:00 2.50458E13ESE0
09:00 2.50486E15ESE0
10:00 4.70446E21O60
11:00 7.30374NE23O60
12:00 6.70379E23NNE60
13:00 6.204211E24E30
14:00 5.305110ESE26NNO0
15:00 6.105311NO23NNO0
16:00 4.30659ESE27SSE0
17:00 3.807210ESE23SE0
18:00 2.40829ESE19ESE0
19:00 2.60806E15E60
20:00 2.807611E16ESE30
21:00 3.20704E13E0
22:00 3.10715ESE11ESE0
23:00 2.40758E13E0
minuit 2.40745ESE15ESE0

Graphique du 02-04-2019

 

Serveur OMMA